| time (UTC) | temp F | wind direction | speed MPH | gust MPH | rain 1hr in | rain 24hr in | rain mn in | humidity % | barometer mb |
| 20260507050845 | 66 | 140 | 0.0 | 1.0 | 0.07 | 0.06 | 0.05 | 95 | 1006.0 |
| 20260507045840 | 66 | 192 | 0.0 | 8.0 | 0.15 | 0.04 | 0.04 | 94 | 1006.8 |
| 20260507044849 | 67 | 338 | 1.0 | 8.0 | 0.09 | 0.03 | 0.02 | 94 | 1006.8 |
| 20260507043814 | 67 | 18 | 0.0 | 4.0 | 0.00 | 0.01 | 0.00 | 94 | 1007.9 |
| 20260507042834 | 67 | 112 | 0.0 | 1.0 | 0.00 | 0.01 | 0.00 | 94 | 1007.7 |
| 20260507041815 | 67 | 32 | 0.0 | 2.0 | 0.00 | 0.00 | 0.00 | 93 | 1007.7 |
| 20260507040833 | 67 | 195 | 0.0 | 0.0 | 0.00 | 0.00 | 0.00 | 93 | 1007.1 |
| 20260507035827 | 67 | 161 | 0.0 | 0.0 | 0.00 | 0.00 | 0.00 | 92 | 1006.5 |
| 20260507034756 | 67 | 64 | 0.0 | 1.0 | 0.00 | 0.00 | 0.00 | 91 | 1006.5 |
| 20260507033743 | 68 | 65 | 0.0 | 0.0 | 0.00 | 0.00 | 0.00 | 91 | 1006.9 |
| 20260507032714 | 68 | 81 | 0.0 | 0.0 | 0.00 | 0.00 | 0.00 | 90 | 1006.9 |
| 20260507031705 | 68 | 1 | 0.0 | 0.0 | 0.00 | 0.00 | 0.00 | 89 | 1006.9 |
| 20260507030720 | 69 | 278 | 0.0 | 1.0 | 0.00 | 0.00 | 0.00 | 89 | 1006.7 |
| 20260507025651 | 68 | 6 | 0.0 | 1.0 | 0.00 | 0.00 | 0.00 | 89 | 1006.4 |
| 20260507024701 | 68 | 82 | 0.0 | 1.0 | 0.00 | 0.00 | 0.00 | 89 | 1006.4 |
| 20260507023659 | 68 | 49 | 0.0 | 0.0 | 0.00 | 0.00 | 0.00 | 90 | 1006.4 |
| 20260507022644 | 68 | 115 | 0.0 | 1.0 | 0.00 | 0.00 | 0.00 | 90 | 1006.1 |
| 20260507021618 | 68 | 51 | 0.0 | 1.0 | 0.00 | 0.00 | 0.00 | 90 | 1006.1 |
| 20260507020636 | 68 | 51 | 0.0 | 0.0 | 0.00 | 0.00 | 0.00 | 90 | 1006.4 |
| 20260507015646 | 68 | 51 | 0.0 | 0.0 | 0.00 | 0.00 | 0.00 | 90 | 1006.4 |
| 20260507014632 | 68 | 51 | 0.0 | 0.0 | 0.00 | 0.00 | 0.00 | 90 | 1006.4 |
| 20260507011436 | 68 | 8 | 0.0 | 0.0 | 0.00 | 0.00 | 0.00 | 89 | 1006.3 |
| 20260507005330 | 68 | 8 | 0.0 | 0.0 | 0.00 | 0.00 | 0.00 | 88 | 1006.1 |
| 20260507003147 | 69 | 65 | 0.0 | 0.0 | 0.00 | 0.00 | 0.00 | 86 | 1006.3 |
| 20260507002202 | 70 | 65 | 0.0 | 0.0 | 0.00 | 0.00 | 0.00 | 85 | 1006.4 |
| 20260507001139 | 70 | 65 | 0.0 | 0.0 | 0.00 | 0.00 | 0.00 | 84 | 1006.4 |
| 20260507000128 | 70 | 359 | 0.0 | 0.0 | 0.00 | 0.00 | 0.00 | 83 | 1006.4 |
| 20260506235053 | 71 | 150 | 0.0 | 0.0 | 0.00 | 0.00 | 0.00 | 82 | 1006.5 |
| 20260506234045 | 72 | 150 | 0.0 | 0.0 | 0.00 | 0.00 | 0.00 | 82 | 1006.3 |
| 20260506233058 | 72 | 153 | 0.0 | 3.0 | 0.00 | 0.00 | 0.00 | 80 | 1006.3 |
| 20260506232024 | 72 | 137 | 0.0 | 1.0 | 0.00 | 0.00 | 0.00 | 80 | 1006.5 |
| 20260506231018 | 73 | 212 | 0.0 | 4.0 | 0.00 | 0.00 | 0.00 | 79 | 1006.4 |
| 20260506230036 | 73 | 109 | 1.0 | 4.0 | 0.00 | 0.00 | 0.00 | 77 | 1006.4 |
| 20260506225023 | 74 | 57 | 1.0 | 4.0 | 0.00 | 0.00 | 0.00 | 76 | 1006.3 |
| 20260506224001 | 75 | 118 | 1.0 | 5.0 | 0.00 | 0.00 | 0.00 | 75 | 1006.0 |
| 20260506223019 | 75 | 22 | 1.0 | 6.0 | 0.00 | 0.00 | 0.00 | 75 | 1006.0 |
| 20260506222018 | 75 | 343 | 1.0 | 6.0 | 0.00 | 0.00 | 0.00 | 76 | 1005.9 |
| 20260506215906 | 74 | 269 | 1.0 | 8.0 | 0.00 | 0.00 | 0.00 | 79 | 1006.0 |
| 20260506214835 | 73 | 129 | 2.0 | 5.0 | 0.00 | 0.00 | 0.00 | 79 | 1006.0 |
| 20260506213824 | 73 | 22 | 1.0 | 5.0 | 0.00 | 0.00 | 0.00 | 80 | 1006.1 |
| 20260506212829 | 73 | 97 | 1.0 | 6.0 | 0.00 | 0.00 | 0.00 | 81 | 1006.1 |
| 20260506211800 | 73 | 13 | 2.0 | 8.0 | 0.00 | 0.00 | 0.00 | 81 | 1006.1 |
| 20260506210738 | 73 | 52 | 1.0 | 9.0 | 0.00 | 0.00 | 0.00 | 82 | 1006.0 |
| 20260506205705 | 72 | 34 | 1.0 | 9.0 | 0.00 | 0.00 | 0.00 | 86 | 1005.9 |
| 20260506204712 | 71 | 131 | 1.0 | 5.0 | 0.00 | 0.00 | 0.00 | 87 | 1005.9 |
| 20260506202622 | 70 | 68 | 2.0 | 9.0 | 0.00 | 0.00 | 0.00 | 88 | 1006.0 |
| 20260506201642 | 70 | 75 | 2.0 | 8.0 | 0.00 | 0.00 | 0.00 | 88 | 1006.0 |
| 20260506200700 | 69 | 109 | 1.0 | 8.0 | 0.00 | 0.00 | 0.00 | 90 | 1006.1 |
| 20260506195711 | 68 | 171 | 1.0 | 5.0 | 0.00 | 0.00 | 0.00 | 91 | 1006.0 |
| 20260506194652 | 68 | 160 | 1.0 | 5.0 | 0.00 | 0.00 | 0.00 | 91 | 1006.0 |
| 20260506191349 | 69 | 110 | 1.0 | 6.0 | 0.00 | 0.00 | 0.00 | 85 | 1008.3 |
| 20260506190407 | 70 | 53 | 0.0 | 5.0 | 0.00 | 0.00 | 0.00 | 83 | 1008.3 |
| 20260506185425 | 71 | 193 | 0.0 | 5.0 | 0.00 | 0.00 | 0.00 | 81 | 1008.2 |
| 20260506184419 | 72 | 150 | 1.0 | 6.0 | 0.00 | 0.00 | 0.00 | 77 | 1008.2 |
| 20260506183416 | 73 | 109 | 1.0 | 9.0 | 0.00 | 0.00 | 0.00 | 73 | 1008.1 |
| 20260506182403 | 74 | 160 | 1.0 | 9.0 | 0.00 | 0.00 | 0.00 | 73 | 1008.2 |
| 20260506181331 | 73 | 195 | 1.0 | 4.0 | 0.00 | 0.00 | 0.00 | 74 | 1008.1 |
| 20260506180306 | 73 | 234 | 1.0 | 6.0 | 0.00 | 0.00 | 0.00 | 74 | 1008.1 |
| 20260506175311 | 73 | 160 | 1.0 | 6.0 | 0.00 | 0.00 | 0.00 | 74 | 1008.1 |
| 20260506174301 | 72 | 323 | 2.0 | 6.0 | 0.00 | 0.00 | 0.00 | 76 | 1008.3 |
| 20260506171013 | 71 | 145 | 0.0 | 4.0 | 0.00 | 0.00 | 0.00 | 79 | 1008.6 |
| 20260506170007 | 70 | 23 | 1.0 | 6.0 | 0.00 | 0.00 | 0.00 | 76 | 1008.6 |
| 20260506164955 | 71 | 45 | 0.0 | 6.0 | 0.00 | 0.00 | 0.00 | 74 | 1008.8 |
| 20260506163959 | 71 | 117 | 1.0 | 6.0 | 0.00 | 0.00 | 0.00 | 72 | 1008.8 |
| 20260506162935 | 71 | 171 | 2.0 | 6.0 | 0.00 | 0.00 | 0.00 | 70 | 1008.8 |
| 20260506161941 | 71 | 37 | 1.0 | 7.0 | 0.00 | 0.00 | 0.00 | 71 | 1008.8 |
| 20260506161003 | 71 | 67 | 1.0 | 9.0 | 0.00 | 0.00 | 0.00 | 71 | 1008.8 |
| 20260506154845 | 70 | 105 | 0.0 | 5.0 | 0.00 | 0.00 | 0.00 | 73 | 1008.6 |
| 20260506153909 | 69 | 115 | 0.0 | 4.0 | 0.00 | 0.00 | 0.00 | 73 | 1008.9 |
| 20260506152918 | 69 | 152 | 1.0 | 6.0 | 0.00 | 0.00 | 0.00 | 73 | 1008.9 |
| 20260506151846 | 69 | 103 | 1.0 | 6.0 | 0.00 | 0.00 | 0.00 | 72 | 1008.5 |
| 20260506150905 | 69 | 1 | 1.0 | 5.0 | 0.00 | 0.00 | 0.00 | 73 | 1008.5 |
| 20260506145845 | 69 | 80 | 2.0 | 11.0 | 0.00 | 0.00 | 0.00 | 72 | 1008.2 |
| 20260506144828 | 69 | 77 | 2.0 | 10.0 | 0.00 | 0.00 | 0.00 | 73 | 1008.2 |
| 20260506143838 | 68 | 68 | 1.0 | 8.0 | 0.00 | 0.00 | 0.00 | 74 | 1008.6 |
| 20260506141709 | 67 | 32 | 1.0 | 8.0 | 0.00 | 0.00 | 0.00 | 75 | 1008.7 |
| 20260506140702 | 67 | 160 | 1.0 | 8.0 | 0.00 | 0.00 | 0.00 | 76 | 1008.6 |
| 20260506135718 | 66 | 89 | 1.0 | 3.0 | 0.00 | 0.00 | 0.00 | 76 | 1009.0 |
| 20260506134657 | 65 | 172 | 1.0 | 5.0 | 0.00 | 0.00 | 0.00 | 77 | 1009.0 |
| 20260506133630 | 65 | 127 | 1.0 | 6.0 | 0.00 | 0.00 | 0.00 | 78 | 1009.1 |
| 20260506131518 | 64 | 163 | 1.0 | 4.0 | 0.00 | 0.00 | 0.00 | 80 | 1009.2 |
| 20260506130447 | 64 | 115 | 0.0 | 4.0 | 0.00 | 0.00 | 0.00 | 81 | 1009.1 |
| 20260506125416 | 64 | 147 | 0.0 | 5.0 | 0.00 | 0.00 | 0.00 | 81 | 1008.8 |
| 20260506124406 | 63 | 318 | 1.0 | 5.0 | 0.00 | 0.00 | 0.00 | 82 | 1008.6 |
| 20260506123406 | 63 | 42 | 1.0 | 4.0 | 0.00 | 0.00 | 0.00 | 82 | 1008.6 |
| 20260506122427 | 63 | 42 | 1.0 | 5.0 | 0.00 | 0.00 | 0.00 | 83 | 1008.5 |
| 20260506121424 | 63 | 76 | 1.0 | 5.0 | 0.00 | 0.00 | 0.00 | 83 | 1008.5 |
| 20260506120358 | 63 | 94 | 1.0 | 6.0 | 0.00 | 0.00 | 0.00 | 84 | 1008.3 |
| 20260506115405 | 62 | 91 | 1.0 | 6.0 | 0.00 | 0.00 | 0.00 | 84 | 1008.5 |
| 20260506114406 | 62 | 248 | 0.0 | 5.0 | 0.00 | 0.00 | 0.00 | 85 | 1008.5 |
| 20260506113414 | 62 | 100 | 0.0 | 9.0 | 0.00 | 0.00 | 0.00 | 85 | 1008.5 |
| 20260506111232 | 62 | 64 | 1.0 | 4.0 | 0.00 | 0.00 | 0.00 | 84 | 1008.2 |
| 20260506110246 | 62 | 87 | 1.0 | 9.0 | 0.00 | 0.00 | 0.00 | 85 | 1008.2 |
| 20260506105230 | 61 | 52 | 1.0 | 9.0 | 0.00 | 0.00 | 0.00 | 85 | 1008.2 |
| 20260506104249 | 61 | 115 | 0.0 | 5.0 | 0.00 | 0.00 | 0.00 | 85 | 1008.3 |
| 20260506103243 | 61 | 75 | 1.0 | 5.0 | 0.00 | 0.00 | 0.00 | 85 | 1008.3 |
| 20260506102249 | 61 | 165 | 1.0 | 5.0 | 0.00 | 0.00 | 0.00 | 85 | 1008.5 |
| 20260506101314 | 61 | 210 | 1.0 | 5.0 | 0.00 | 0.00 | 0.00 | 84 | 1008.5 |
| 20260506095225 | 62 | 37 | 1.0 | 6.0 | 0.00 | 0.00 | 0.00 | 84 | 1008.5 |
| 20260506094231 | 62 | 125 | 1.0 | 5.0 | 0.00 | 0.00 | 0.00 | 84 | 1008.6 |
| 20260506093247 | 62 | 23 | 1.0 | 5.0 | 0.00 | 0.00 | 0.00 | 84 | 1008.6 |
| 20260506092305 | 62 | 34 | 1.0 | 8.0 | 0.00 | 0.00 | 0.00 | 84 | 1008.9 |
| 20260506091324 | 62 | 56 | 1.0 | 8.0 | 0.00 | 0.00 | 0.00 | 84 | 1008.5 |
| 20260506090349 | 62 | 124 | 1.0 | 5.0 | 0.00 | 0.00 | 0.00 | 84 | 1008.5 |
| 20260506085318 | 62 | 122 | 1.0 | 5.0 | 0.00 | 0.00 | 0.00 | 83 | 1008.6 |
| 20260506084330 | 62 | 146 | 1.0 | 5.0 | 0.00 | 0.00 | 0.00 | 83 | 1008.6 |
| 20260506083301 | 62 | 92 | 1.0 | 8.0 | 0.00 | 0.00 | 0.00 | 83 | 1008.6 |
| 20260506082301 | 62 | 131 | 0.0 | 8.0 | 0.00 | 0.00 | 0.00 | 83 | 1008.6 |
| 20260506080155 | 62 | 39 | 1.0 | 5.0 | 0.00 | 0.00 | 0.00 | 83 | 1008.6 |
| 20260506073024 | 63 | 97 | 1.0 | 5.0 | 0.00 | 0.00 | 0.00 | 82 | 1008.9 |
| 20260506072010 | 63 | 68 | 0.0 | 4.0 | 0.00 | 0.00 | 0.00 | 81 | 1009.0 |
| 20260506071001 | 63 | 106 | 1.0 | 4.0 | 0.00 | 0.00 | 0.00 | 81 | 1009.0 |
| 20260506061935 | 63 | 235 | 1.0 | 6.0 | 0.00 | 0.00 | 0.00 | 80 | 1009.4 |
| 20260506060930 | 64 | 174 | 1.0 | 5.0 | 0.00 | 0.00 | 0.00 | 79 | 1009.4 |